STARLINK-1864 (47151 NORAD) Tracking and Keplerian Element Data

This shows tracking and keplerian element data for the satellite.

Feedback or suggestion? Click here.




ElementValue
Catalog47151
NameSTARLINK-1864
Epoch Orbit175
Epoch Day62.91667824
Epoch Year2021
RAAN244.8204
Inclination53.0434
Eccentricity0.0002391
Argument of Perigee97.7407
Mean Anonmoly260.1541
Mean Motion15.06370147
Decay Rate0.00050852
L11 47151U 20088AF 21062.91667824 .00050852 00000-0 34109-2 0 9999
L22 47151 53.0434 244.8204 0002391 97.7407 260.1541 15.06370147 1758

Live tracking and technical data element details for STARLINK-1864 (NORAD 47151). STARLINK-1864 can be tracked NOW for your location showing map with azimuth and elevation plus other details from your city location.

Track the satellite on the map from your city or location and see movement details for azimuth, elevation, latitude, longitude, range, height, and movement on the map or in text.







IsCatalogInMostPopularTable: catalog: 47151, numindb: 41
Update: records affected: 1



GetName: 47151 STARLINK-1864

Hit Count: updated at: Fri, 05 Mar 2021 06:32:11 GMT